Blythe, CA

4:25 AM PDT on October 18, 2017 (GMT -0700)
Blythe

Weather History for KBLH - September, 2013

Change the Weather History Date:

Wednesday, September 25, 2013

  Actual Average Record
Temperature  
Mean Temperature 84 °F -  
Max Temperature 98 °F 97 °F 116 °F (1997)
Min Temperature 71 °F 68 °F 46 °F (1986)
Cooling Degree Days 20    
Growing Degree Days 34 (Base 50)    
Moisture  
Dew Point 39 °F    
Average Humidity 24    
Maximum Humidity 49    
Minimum Humidity 10    
Precipitation  
Precipitation 0.00 in - - ()
Sea Level Pressure  
Sea Level Pressure 29.61 in    
Wind  
Wind Speed 14 mph (SSW)    
Max Wind Speed 25 mph    
Max Gust Speed 34 mph    
Visibility 9 miles    
Events      
Averages and records for this station are not official NWS values.
T = Trace of Precipitation, MM = Missing Value Source: NWS Daily Summary

Daily Weather History Graph

Daily Weather History Graph

Search for Another Location

Airport or City:

Trip Planner

Search our weather history database for the weather conditions in past years. The results will help you decide how hot, cold, wet, or windy it might be!

Date:

Astronomy

Sep. 25, 2013 Rise Set
Actual Time 6:29 AM PDT 6:31 PM PDT
Civil Twilight 6:04 AM PDT 6:55 PM PDT
Nautical Twilight 5:35 AM PDT 7:24 PM PDT
Astronomical Twilight 5:06 AM PDT 7:53 PM PDT
Moon 10:55 PM PDT (9/25) 12:23 PM PDT (9/25)
Length of Visible Light 12h 51m
Length of Day
12h 01m
Waning Gibbous, 63% of the Moon is Illuminated
Sep 25
Waning Gibbous
Sep 26
Last Quarter
Oct 4
New
Oct 11
First Quarter
Oct 18
Full

Hourly Weather History & Observations

Time (PDT) Temp. Dew Point Humidity Pressure Visibility Wind Dir Wind Speed Gust Speed Precip Events Conditions
12:52 AM 80.1 °F 46.0 °F 30% 29.72 in 10.0 mi South 8.1 mph - N/A   Clear
1:52 AM 77.0 °F 52.0 °F 42% 29.70 in 10.0 mi South 9.2 mph - N/A   Clear
2:52 AM 75.9 °F 52.0 °F 43% 29.69 in 10.0 mi South 17.3 mph - N/A   Clear
3:52 AM 75.0 °F 51.1 °F 43% 29.68 in 10.0 mi South 5.8 mph - N/A   Clear
4:52 AM 73.9 °F 48.0 °F 40% 29.67 in 10.0 mi South 10.4 mph - N/A   Clear
5:52 AM 73.0 °F 53.1 °F 49% 29.66 in 10.0 mi South 12.7 mph - N/A   Clear
6:52 AM 71.1 °F 51.1 °F 49% 29.68 in 10.0 mi South 9.2 mph - N/A   Clear
7:52 AM 75.0 °F 54.0 °F 48% 29.69 in 10.0 mi South 13.8 mph - N/A   Clear
8:52 AM 80.1 °F 48.9 °F 34% 29.68 in 10.0 mi South 13.8 mph - N/A   Clear
9:52 AM 87.1 °F 36.0 °F 16% 29.68 in 10.0 mi SW 15.0 mph - N/A   Clear
10:52 AM 90.0 °F 33.1 °F 13% 29.66 in 10.0 mi SW 15.0 mph - N/A   Clear
11:52 AM 91.9 °F 33.1 °F 12% 29.64 in 9.0 mi SW 20.7 mph 29.9 mph N/A   Clear
12:52 PM 93.9 °F 32.0 °F 11% 29.61 in 10.0 mi SW 21.9 mph 29.9 mph N/A   Clear
1:52 PM 97.0 °F 32.0 °F 10% 29.58 in 10.0 mi WSW 21.9 mph 26.5 mph N/A   Clear
2:52 PM 98.1 °F 33.1 °F 10% 29.55 in 10.0 mi SW 20.7 mph 34.5 mph N/A   Clear
3:52 PM 97.0 °F 32.0 °F 10% 29.53 in 9.0 mi SSW 21.9 mph 33.4 mph N/A   Clear
4:52 PM 95.0 °F 34.0 °F 12% 29.52 in 10.0 mi SW 25.3 mph 29.9 mph N/A   Clear
5:52 PM 93.0 °F 37.0 °F 14% 29.52 in 9.0 mi SW 16.1 mph 25.3 mph N/A   Partly Cloudy
6:52 PM 89.1 °F 35.1 °F 15% 29.52 in 7.0 mi SW 17.3 mph 23.0 mph N/A   Overcast
7:52 PM 84.9 °F 30.0 °F 14% 29.54 in 6.0 mi SW 17.3 mph - N/A   Haze
8:52 PM 82.0 °F 30.0 °F 15% 29.54 in 8.0 mi SW 16.1 mph - N/A   Clear
9:52 PM 80.1 °F 30.9 °F 17% 29.55 in 9.0 mi SW 18.4 mph 25.3 mph N/A   Clear
10:52 PM 79.0 °F 26.1 °F 14% 29.55 in 9.0 mi SSW 19.6 mph 28.8 mph N/A   Clear
11:52 PM 78.1 °F 24.1 °F 14% 29.56 in 10.0 mi SSW 13.8 mph - N/A   Clear